W4TBD-13 Weather Reports


time (UTC)temp
C
wind
direction
speed
KPH
gust
KPH
rain 1hr
cm
rain 24hr
cm
rain mn
cm
humidity
%
barometer
mb
20260510165004 28 52 1.6 4.8 0.00 0.00 0.00 37 1004.3
20260510164504 28 106 3.2 4.8 0.00 0.00 0.00 38 1004.3
20260510164004 28 35 1.6 3.2 0.00 0.00 0.00 37 1004.3
20260510163005 29 191 1.6 3.2 0.00 0.00 0.00 37 1004.3
20260510162005 28 25 1.6 3.2 0.00 0.00 0.00 37 1004.6
20260510161004 27 49 1.6 3.2 0.00 0.00 0.00 40 1004.5
20260510160004 26 300 1.6 1.6 0.00 0.00 0.00 44 1004.8
20260510155504 26 344 1.6 1.6 0.00 0.00 0.00 45 1004.7
20260510155004 26 308 1.6 1.6 0.00 0.00 0.00 45 1004.7
20260510153504 26 320 1.6 1.6 0.00 0.00 0.00 47 1004.8
20260510152504 26 315 0.0 3.2 0.00 0.00 0.00 46 1004.9
20260510152005 26 171 1.6 3.2 0.00 0.00 0.00 46 1004.8
20260510151504 25 351 1.6 3.2 0.00 0.00 0.00 46 1004.7
20260510151004 25 352 3.2 3.2 0.00 0.00 0.00 48 1005.0
20260510150504 25 348 1.6 3.2 0.00 0.00 0.00 50 1004.8
20260510145505 25 333 0.0 1.6 0.00 0.00 0.00 50 1004.9
20260510145004 25 273 1.6 1.6 0.00 0.00 0.00 50 1004.8
20260510144505 25 143 1.6 1.6 0.00 0.00 0.00 49 1004.8
20260510143004 25 352 1.6 3.2 0.00 0.00 0.00 55 1004.8
20260510142505 25 103 1.6 3.2 0.00 0.00 0.00 52 1004.6
20260510141504 23 309 0.0 3.2 0.00 0.00 0.00 58 1004.8
20260510141006 23 190 0.0 3.2 0.00 0.00 0.00 58 1004.7
20260510140004 22 205 0.0 1.6 0.00 0.00 0.00 60 1004.7
20260510135504 22 329 1.6 1.6 0.00 0.00 0.00 57 1004.6
20260510135004 22 329 1.6 1.6 0.00 0.00 0.00 62 1004.7
20260510134505 22 196 0.0 3.2 0.00 0.00 0.00 62 1004.5
20260510134004 22 223 1.6 3.2 0.00 0.00 0.00 61 1004.7
20260510133504 22 197 1.6 1.6 0.00 0.00 0.00 63 1004.6
20260510133004 22 4 0.0 0.0 0.00 0.00 0.00 66 1004.8
20260510132006 21 4 0.0 1.6 0.00 0.00 0.00 70 1004.7
20260510130504 20 4 0.0 1.6 0.00 0.00 0.00 72 1004.8
20260510125505 20 5 1.6 1.6 0.00 0.00 0.00 74 1004.4
20260510125004 19 4 0.0 0.0 0.00 0.00 0.00 74 1004.3
20260510124504 18 4 0.0 1.6 0.00 0.00 0.00 77 1004.5
20260510124004 18 4 0.0 1.6 0.00 0.00 0.00 80 1004.3
20260510123504 17 5 0.0 1.6 0.00 0.00 0.00 82 1004.3
20260510123004 17 4 0.0 1.6 0.00 0.00 0.00 84 1004.5
20260510122004 15 5 0.0 0.0 0.00 0.00 0.00 93 1004.2
20260510121505 15 5 0.0 0.0 0.00 0.00 0.00 96 1004.2
20260510121004 15 6 0.0 0.0 0.00 0.00 0.00 97 1004.2
20260510120504 15 6 0.0 0.0 0.00 0.00 0.00 97 1004.1
20260510120004 14 6 0.0 0.0 0.00 0.00 0.00 98 1003.9
20260510115504 14 6 0.0 0.0 0.00 0.00 0.00 98 1003.8
20260510115004 13 6 0.0 0.0 0.00 0.00 0.00 98 1003.8
20260510114004 13 6 0.0 0.0 0.00 0.00 0.00 98 1003.7
20260510113504 13 6 0.0 0.0 0.00 0.00 0.00 98 1003.6
20260510113004 12 6 0.0 0.0 0.00 0.00 0.00 97 1003.8
20260510112504 12 6 0.0 0.0 0.00 0.00 0.00 97 1003.6
20260510111504 12 6 0.0 0.0 0.00 0.00 0.00 97 1003.4
20260510111004 12 6 0.0 0.0 0.00 0.00 0.00 97 1003.2
20260510110504 12 6 0.0 0.0 0.00 0.00 0.00 97 1003.3
20260510110005 12 6 0.0 0.0 0.00 0.00 0.00 97 1003.1
20260510105504 11 6 0.0 0.0 0.00 0.00 0.00 97 1003.3
20260510104505 12 6 0.0 0.0 0.00 0.00 0.00 97 1003.4
20260510104004 11 6 0.0 0.0 0.00 0.00 0.00 97 1003.1
20260510103504 11 6 0.0 0.0 0.00 0.00 0.00 96 1002.8
20260510103005 12 6 0.0 0.0 0.00 0.00 0.00 96 1002.7
20260510102504 12 6 0.0 0.0 0.00 0.00 0.00 96 1002.8
20260510102004 12 6 0.0 0.0 0.00 0.00 0.00 96 1002.7
20260510101503 12 6 0.0 0.0 0.00 0.00 0.00 96 1002.7
20260510101004 12 6 0.0 0.0 0.00 0.00 0.00 96 1002.7
20260510100504 12 6 0.0 0.0 0.00 0.00 0.00 96 1002.4
20260510100004 12 6 0.0 0.0 0.00 0.00 0.00 96 1002.3
20260510095504 12 6 0.0 0.0 0.00 0.00 0.00 95 1002.4
20260510095004 12 6 0.0 0.0 0.00 0.00 0.00 95 1002.1
20260510094504 12 6 0.0 1.6 0.00 0.00 0.00 95 1002.1
20260510093504 12 6 0.0 0.0 0.00 0.00 0.00 96 1001.9
20260510093004 12 6 0.0 0.0 0.00 0.00 0.00 96 1002.0
20260510092504 12 6 0.0 0.0 0.00 0.00 0.00 96 1002.3
20260510092004 13 6 0.0 0.0 0.00 0.00 0.00 96 1002.1
20260510091004 13 6 0.0 0.0 0.00 0.00 0.00 96 1002.1
20260510090504 13 6 0.0 0.0 0.00 0.00 0.00 96 1002.0
20260510085504 13 6 0.0 0.0 0.00 0.00 0.00 96 1002.1
20260510085005 13 6 0.0 0.0 0.00 0.00 0.00 96 1001.6
20260510084505 13 6 0.0 0.0 0.00 0.00 0.00 96 1001.5
20260510083504 13 14 0.0 1.6 0.00 0.00 0.00 96 1001.8
20260510083004 13 14 0.0 1.6 0.00 0.00 0.00 96 1001.5
20260510082004 13 337 0.0 0.0 0.00 0.00 0.00 95 1001.8
20260510081004 14 337 0.0 0.0 0.00 0.00 0.00 95 1001.5
20260510080004 14 338 0.0 0.0 0.00 0.00 0.00 95 1001.5
20260510075505 14 338 0.0 1.6 0.00 0.00 0.00 94 1001.5
20260510075004 14 330 0.0 1.6 0.00 0.00 0.00 94 1001.5
20260510074503 15 330 0.0 1.6 0.00 0.00 0.00 94 1001.3
20260510073004 15 330 0.0 0.0 0.00 0.00 0.00 93 1001.4
20260510072004 15 330 0.0 1.6 0.00 0.00 0.00 92 1001.5
20260510071504 15 330 0.0 1.6 0.00 0.00 0.00 92 1001.5
20260510071004 15 330 0.0 0.0 0.00 0.00 0.00 92 1001.6
20260510070503 15 330 0.0 1.6 0.00 0.00 0.00 91 1001.4
20260510070005 15 330 0.0 1.6 0.00 0.00 0.00 91 1001.3
20260510065504 16 329 0.0 0.0 0.00 0.00 0.00 90 1001.4
20260510065004 16 329 0.0 0.0 0.00 0.00 0.00 90 1001.3
20260510064503 16 329 0.0 0.0 0.00 0.00 0.00 89 1001.3
20260510064004 16 329 0.0 0.0 0.00 0.00 0.00 89 1001.3
20260510063004 16 329 0.0 0.0 0.00 0.00 0.00 88 1001.5
20260510062504 17 329 0.0 0.0 0.00 0.00 0.00 88 1001.6
20260510062003 17 329 0.0 0.0 0.00 0.00 0.00 88 1001.6
20260510061504 17 329 0.0 0.0 0.00 0.00 0.00 88 1001.5
20260510061004 17 334 0.0 1.6 0.00 0.00 0.00 88 1001.6
20260510060003 17 312 0.0 1.6 0.00 0.00 0.00 88 1001.5
20260510055504 17 312 0.0 0.0 0.00 0.00 0.00 87 1001.5
20260510054503 17 312 0.0 1.6 0.00 0.00 0.00 87 1001.5
20260510054004 17 325 0.0 1.6 0.00 0.00 0.00 87 1001.6
20260510053504 17 317 0.0 1.6 0.00 0.00 0.00 87 1001.6
20260510053003 17 322 0.0 1.6 0.00 0.00 0.00 86 1001.7
20260510052504 17 321 0.0 1.6 0.00 0.00 0.00 86 1001.5
20260510052004 17 328 0.0 1.6 0.00 0.00 0.00 86 1001.6
20260510051504 17 329 0.0 1.6 0.00 0.00 0.00 85 1001.7
20260510051005 17 330 0.0 1.6 0.00 0.00 0.00 85 1001.7
20260510050503 17 329 0.0 1.6 0.00 0.00 0.00 84 1001.7
20260510050004 17 329 0.0 1.6 0.00 0.00 0.00 84 1001.7
20260510045504 17 329 0.0 1.6 0.00 0.00 0.00 84 1001.6
20260510045003 17 329 0.0 1.6 0.00 0.00 0.00 84 1001.5
20260510044505 17 332 0.0 1.6 0.00 0.00 0.00 83 1001.7
20260510044004 17 347 0.0 1.6 0.00 0.00 0.00 83 1001.6
20260510043504 17 327 0.0 1.6 0.00 0.00 0.00 83 1001.8
20260510043004 17 345 0.0 1.6 0.00 0.00 0.00 83 1001.6
20260510042503 17 354 0.0 1.6 0.00 0.00 0.00 83 1001.6
20260510042005 17 325 0.0 1.6 0.00 0.00 0.00 82 1001.5
20260510041505 17 357 1.6 1.6 0.00 0.00 0.00 82 1001.4
20260510041004 17 342 0.0 1.6 0.00 0.00 0.00 82 1001.7
20260510040003 17 94 0.0 1.6 0.00 0.00 0.00 82 1001.6
20260510035505 17 97 0.0 1.6 0.00 0.00 0.00 81 1001.4
20260510035004 17 178 1.6 1.6 0.00 0.00 0.00 80 1001.6
20260510034503 18 243 0.0 1.6 0.00 0.00 0.00 80 1001.3
20260510034004 18 212 0.0 1.6 0.00 0.00 0.00 80 1001.6
20260510033504 18 326 0.0 1.6 0.00 0.00 0.00 79 1001.3
20260510033005 18 205 0.0 1.6 0.00 0.00 0.00 79 1001.3
20260510032004 18 298 0.0 1.6 0.00 0.00 0.00 79 1001.1
20260510031504 18 211 1.6 1.6 0.00 0.00 0.00 79 1000.9
20260510030504 18 295 0.0 1.6 0.00 0.00 0.00 77 1001.3
20260510025505 18 296 0.0 3.2 0.00 0.00 0.00 76 1001.3
20260510025003 18 275 0.0 3.2 0.00 0.00 0.00 76 1001.0
20260510024503 18 229 1.6 1.6 0.00 0.00 0.00 76 1001.0
20260510024005 18 275 0.0 1.6 0.00 0.00 0.00 76 1001.1
20260510023503 18 285 0.0 0.0 0.00 0.00 0.00 75 1001.2
20260510023005 18 282 0.0 1.6 0.00 0.00 0.00 75 1001.0
20260510022504 19 286 0.0 1.6 0.00 0.00 0.00 74 1001.0
20260510022005 19 230 0.0 1.6 0.00 0.00 0.00 74 1001.2
20260510021503 19 269 0.0 1.6 0.00 0.00 0.00 73 1000.8
20260510021005 19 154 0.0 1.6 0.00 0.00 0.00 73 1000.8
20260510020504 19 213 1.6 1.6 0.00 0.00 0.00 73 1000.6
20260510020004 19 295 1.6 1.6 0.00 0.00 0.00 73 1000.7
20260510015505 19 244 0.0 1.6 0.00 0.00 0.00 73 1000.6
20260510014505 20 300 0.0 0.0 0.00 0.00 0.00 72 1000.4
20260510014006 20 280 0.0 0.0 0.00 0.00 0.00 71 1000.4
20260510013505 20 279 0.0 1.6 0.00 0.00 0.00 70 1000.2
20260510013005 20 8 0.0 1.6 0.00 0.00 0.00 70 1000.1
20260510012504 20 266 1.6 4.8 0.00 0.00 0.00 69 1000.2
20260510012005 20 223 3.2 4.8 0.00 0.00 0.00 68 1000.3
20260510011504 20 254 1.6 3.2 0.00 0.00 0.00 68 1000.2
20260510011005 20 231 1.6 3.2 0.00 0.00 0.00 67 999.9
20260510010505 21 209 0.0 1.6 0.00 0.00 0.00 67 1000.0
20260510010005 20 242 1.6 1.6 0.00 0.00 0.00 67 999.8
20260510005506 21 243 1.6 1.6 0.00 0.00 0.00 67 999.9
20260510005004 21 250 1.6 3.2 0.00 0.00 0.00 67 999.8
20260510004505 21 256 0.0 3.2 0.00 0.00 0.00 66 999.7
20260510004005 21 258 1.6 3.2 0.00 0.00 0.00 66 999.7
20260510003506 21 239 0.0 1.6 0.00 0.00 0.00 65 999.6
20260510003005 21 343 0.0 1.6 0.00 0.00 0.00 65 999.7
20260510002504 21 249 0.0 0.0 0.00 0.00 0.00 65 999.6
20260510002005 21 297 0.0 0.0 0.00 0.00 0.00 64 999.4
20260510001506 21 334 0.0 0.0 0.00 0.00 0.00 63 999.3
20260510001005 21 333 0.0 1.6 0.00 0.00 0.00 62 999.3
20260510000506 22 345 0.0 1.6 0.00 0.00 0.00 62 999.3
20260510000004 22 347 0.0 1.6 0.00 0.00 0.00 61 999.2
20260509235505 22 257 0.0 1.6 0.00 0.00 0.00 60 999.1
20260509235004 22 206 0.0 1.6 0.00 0.00 0.00 60 999.2
20260509234505 22 319 0.0 1.6 0.00 0.00 0.00 60 999.1
20260509234005 22 303 0.0 1.6 0.00 0.00 0.00 60 999.3
20260509233005 23 0 0.0 1.6 0.00 0.00 0.00 58 999.1
20260509232506 23 340 0.0 1.6 0.00 0.00 0.00 58 998.8
20260509232006 23 4 0.0 3.2 0.00 0.00 0.00 57 999.1
20260509231505 23 285 0.0 3.2 0.00 0.00 0.00 56 998.9
20260509231004 23 322 1.6 1.6 0.00 0.00 0.00 56 999.2
20260509230505 23 138 0.0 1.6 0.00 0.00 0.00 55 999.1
20260509230004 23 132 0.0 1.6 0.00 0.00 0.00 55 999.2
20260509225504 23 287 0.0 3.2 0.00 0.00 0.00 54 999.0
20260509225006 23 212 1.6 3.2 0.00 0.00 0.00 53 998.9
20260509224504 24 293 1.6 3.2 0.00 0.00 0.00 52 998.9
20260509224005 24 253 1.6 3.2 0.00 0.00 0.00 52 999.0
20260509223006 24 306 1.6 3.2 0.00 0.00 0.00 53 999.0
20260509222504 23 223 1.6 4.8 0.00 0.00 0.00 52 999.1
20260509222005 23 359 0.0 4.8 0.00 0.00 0.00 54 998.9
20260509221505 23 213 1.6 4.8 0.00 0.00 0.00 52 999.0
20260509221006 23 201 0.0 3.2 0.00 0.00 0.00 54 998.9
20260509220506 23 188 1.6 3.2 0.00 0.00 0.00 53 999.1
20260509215505 23 338 0.0 3.2 0.00 0.00 0.00 52 999.0
20260509215005 23 282 1.6 3.2 0.00 0.00 0.00 53 999.0
20260509214505 23 319 0.0 1.6 0.00 0.00 0.00 53 998.9
20260509214006 23 296 1.6 3.2 0.00 0.00 0.00 51 998.9
20260509213505 24 314 1.6 3.2 0.00 0.00 0.00 51 998.9
20260509213005 24 300 1.6 3.2 0.00 0.00 0.00 51 998.7
20260509212504 24 315 1.6 3.2 0.00 0.00 0.00 51 998.8
20260509212004 24 290 1.6 3.2 0.00 0.00 0.00 50 998.8
20260509211504 24 0 1.6 1.6 0.00 0.00 0.00 53 998.7
20260509211005 24 340 0.0 3.2 0.00 0.00 0.00 52 998.6
20260509210504 24 310 1.6 4.8 0.00 0.00 0.00 52 998.8
20260509205506 24 207 1.6 4.8 0.00 0.00 0.00 52 998.7
20260509205004 24 312 1.6 3.2 0.00 0.00 0.00 51 998.6
20260509204505 24 185 1.6 4.8 0.00 0.00 0.00 52 998.9
20260509204005 24 260 3.2 4.8 0.00 0.00 0.00 53 998.8
20260509203504 24 242 1.6 4.8 0.00 0.00 0.00 52 998.8
20260509203005 24 304 0.0 4.8 0.00 0.00 0.00 53 998.6
20260509202504 24 315 3.2 4.8 0.00 0.00 0.00 54 998.8
20260509202005 23 303 1.6 3.2 0.00 0.00 0.00 55 998.9
20260509201504 23 327 0.0 3.2 0.00 0.00 0.00 56 998.9
20260509201004 23 288 1.6 3.2 0.00 0.00 0.00 56 999.0
20260509200506 23 274 1.6 3.2 0.00 0.00 0.00 55 998.9
20260509195505 22 302 1.6 1.6 0.00 0.00 0.00 56 999.2
20260509195004 22 300 1.6 3.2 0.00 0.00 0.00 57 999.4
20260509194505 22 294 0.0 3.2 0.00 0.00 0.00 57 999.3
20260509194004 22 12 1.6 4.8 0.00 0.00 0.00 55 999.3
20260509193504 23 314 1.6 4.8 0.00 0.00 0.00 55 999.3
20260509192504 23 187 1.6 3.2 0.00 0.00 0.00 54 999.5
20260509192005 23 318 1.6 3.2 0.00 0.00 0.00 55 999.7
20260509191504 23 0 1.6 3.2 0.00 0.00 0.00 52 999.5
20260509191004 23 65 0.0 3.2 0.00 0.00 0.00 53 999.4
20260509190504 23 318 1.6 3.2 0.00 0.00 0.00 55 999.6
20260509190004 22 299 1.6 3.2 0.00 0.00 0.00 54 999.6
20260509185505 22 322 0.0 3.2 0.00 0.00 0.00 55 999.8
20260509185005 22 349 1.6 3.2 0.00 0.00 0.00 54 1000.0
20260509183504 23 313 1.6 4.8 0.00 0.00 0.00 52 1000.0
20260509183005 23 229 3.2 4.8 0.00 0.00 0.00 50 1000.0
20260509182504 24 188 1.6 4.8 0.00 0.00 0.00 50 1000.1
20260509182004 24 286 1.6 3.2 0.00 0.00 0.00 50 1000.1
20260509181506 23 258 1.6 3.2 0.00 0.00 0.00 52 1000.3
20260509181004 23 258 1.6 11.3 0.00 0.00 0.00 52 1000.1
20260509180504 24 294 1.6 11.3 0.00 0.00 0.00 50 1000.3
20260509180006 23 216 3.2 4.8 0.00 0.00 0.00 51 1000.2
20260509175504 23 241 1.6 3.2 0.00 0.00 0.00 53 1000.4
20260509174505 23 238 1.6 9.7 0.00 0.00 0.00 53 1000.4
20260509174004 23 99 1.6 9.7 0.00 0.00 0.00 51 1000.4
20260509172505 23 167 1.6 4.8 0.00 0.00 0.00 51 1000.6
20260509172004 23 321 1.6 4.8 0.00 0.00 0.00 53 1000.4
20260509171505 23 296 1.6 3.2 0.00 0.00 0.00 51 1000.6
20260509171004 23 74 1.6 8.0 0.00 0.00 0.00 53 1000.6
20260509170504 23 314 0.0 8.0 0.00 0.00 0.00 54 1000.6
20260509170004 23 193 1.6 4.8 0.00 0.00 0.00 53 1000.6
20260509165504 22 27 1.6 3.2 0.00 0.00 0.00 55 1000.9